Date,TemperatureHighF,TemperatureAvgF,TemperatureLowF,DewpointHighF,DewpointAvgF,DewpointLowF,HumidityHigh,HumidityAvg,HumidityLow,PressureMaxIn,PressureMinIn,WindSpeedMaxMPH,WindSpeedAvgMPH,GustSpeedMaxMPH,PrecipitationSumIn
2013-1-23,73.0,68.6,62.0,59.0,55.2,52.0,81,63,50,30.28,30.22,9,5,13,0.00
2013-1-24,74.0,65.3,59.0,56.0,52.9,45.0,85,66,44,30.27,30.19,9,4,13,0.00
2013-1-25,75.0,66.4,59.0,60.0,55.3,51.0,85,69,52,30.27,30.17,9,2,10,0.00
2013-1-26,77.0,67.4,60.0,61.0,57.9,53.0,93,73,48,30.24,30.16,9,2,9,0.00
2013-1-27,78.0,70.0,61.0,63.0,59.9,58.0,91,72,53,30.28,30.19,9,3,10,0.00
2013-1-28,79.0,74.6,72.0,66.0,63.0,60.0,77,68,58,30.31,30.23,9,6,12,0.00
2013-1-29,78.0,74.6,73.0,69.0,66.2,64.0,84,75,71,30.23,30.13,9,4,13,0.00
2013-1-30,78.0,74.6,72.0,68.0,65.0,62.0,86,72,64,30.13,29.97,11,5,13,0.00
2013-1-31,72.0,64.9,59.0,68.0,54.6,42.0,90,70,49,30.17,29.98,11,4,11,0.00
2013-2-1,71.0,62.0,54.0,55.0,49.1,40.0,74,63,53,30.25,30.15,13,6,17,0.00
2013-2-2,72.0,63.4,56.0,55.0,49.4,39.0,87,62,46,30.24,30.11,8,3,10,0.00
2013-2-3,73.0,63.0,56.0,55.0,49.8,40.0,94,65,31,30.15,30.06,10,3,11,0.00
2013-2-4,75.0,62.3,50.0,56.0,49.4,43.0,87,65,34,30.13,30.02,8,2,9,0.00
2013-2-5,77.0,66.6,55.0,64.0,58.4,53.0,95,77,52,30.07,30.00,7,2,13,0.00
2013-2-6,79.0,70.2,61.0,66.0,62.2,60.0,95,77,59,30.09,30.01,8,3,9,0.00
2013-2-7,80.0,74.4,70.0,66.0,63.6,61.0,81,70,55,30.07,29.94,9,4,9,0.00
2013-2-8,82.0,74.4,70.0,70.0,66.6,64.0,92,78,58,30.03,29.90,11,4,12,0.00
2013-2-9,77.0,70.8,64.0,67.0,63.3,59.0,95,78,63,30.17,30.01,11,4,15,0.00
2013-2-10,75.0,71.8,70.0,62.0,60.8,58.0,77,68,63,30.25,30.14,10,6,13,0.00
2013-2-11,77.0,73.3,70.0,65.0,62.9,60.0,76,70,64,30.22,30.10,9,5,11,0.00
2013-2-12,81.0,74.4,66.0,69.0,66.3,63.0,92,77,61,30.11,29.98,11,4,11,0.00
2013-2-13,82.0,75.8,69.0,71.0,69.0,65.0,93,80,65,30.01,29.90,11,5,15,0.00
2013-2-14,79.0,70.8,63.0,71.0,67.2,61.0,95,88,74,30.01,29.87,12,4,12,0.95
2013-2-15,72.0,66.8,63.0,66.0,64.4,61.0,95,92,79,30.01,29.93,8,2,8,0.96
2013-2-16,72.0,65.3,55.0,64.0,56.8,46.0,95,76,44,30.07,29.87,12,5,16,0.39
2013-2-17,58.0,50.7,45.0,47.0,34.8,22.0,73,56,29,30.28,30.06,16,6,23,0.01
2013-2-18,69.0,59.3,47.0,57.0,45.8,35.0,70,61,48,30.29,30.19,10,5,11,0.00
2013-2-19,76.0,71.4,63.0,66.0,60.4,54.0,90,69,60,30.19,30.08,10,5,15,0.00
2013-2-20,78.0,70.0,64.0,67.0,63.9,58.0,95,82,55,30.11,30.01,9,2,12,0.01
2013-2-21,80.0,72.8,65.0,68.0,65.3,63.0,95,78,61,30.09,29.99,9,3,11,0.03
2013-2-22,80.0,75.8,73.0,70.0,68.6,65.0,86,79,68,30.10,30.01,11,5,14,0.00
2013-2-23,82.0,76.6,73.0,72.0,69.1,67.0,88,78,67,30.05,29.92,11,6,15,0.00
2013-2-24,85.0,76.7,71.0,72.0,69.9,65.0,95,80,52,30.00,29.91,7,3,10,0.00
2013-2-25,83.0,75.8,69.0,72.0,69.6,66.0,93,82,66,29.92,29.82,13,4,14,0.00
2013-2-26,85.0,78.9,75.0,72.0,69.8,66.0,86,74,55,29.90,29.81,12,7,16,0.00
2013-2-27,77.0,70.5,65.0,73.0,65.6,62.0,95,85,63,29.96,29.86,7,3,11,0.37
2013-2-28,69.0,64.4,60.0,63.0,54.3,48.0,94,71,48,30.00,29.90,8,4,12,0.37
2013-3-1,65.0,62.3,59.0,58.0,52.0,48.0,82,69,56,29.98,29.90,8,4,9,0.00
2013-3-2,65.0,57.9,53.0,51.0,43.4,37.0,75,59,44,30.02,29.94,10,5,15,0.00
2013-3-3,60.0,53.7,51.0,48.0,44.2,40.0,87,71,49,30.13,29.96,10,4,11,0.00
2013-3-4,65.0,52.8,43.0,46.0,39.5,35.0,81,62,35,30.19,30.10,10,5,15,0.00
2013-3-5,74.0,62.4,50.0,57.0,52.6,46.0,94,72,52,30.16,30.08,9,3,13,0.00
2013-3-6,77.0,64.6,53.0,63.0,55.9,39.0,93,75,42,30.09,29.94,13,5,13,0.00
2013-3-7,68.0,57.7,50.0,56.0,47.4,38.0,85,69,48,30.17,30.05,9,4,12,0.00
2013-3-8,73.0,62.9,54.0,54.0,51.4,45.0,90,69,38,30.17,30.10,8,3,9,0.00
2013-3-9,73.0,65.5,57.0,57.0,53.7,51.0,89,67,51,30.18,30.09,10,4,14,0.00
2013-3-10,75.0,70.2,67.0,61.0,55.8,52.0,72,61,50,30.16,30.06,9,5,17,0.00
2013-3-11,77.0,72.1,69.0,63.0,59.9,58.0,73,66,53,30.11,29.96,11,5,12,0.00
2013-3-12,79.0,74.4,70.0,69.0,65.1,61.0,83,73,64,30.00,29.91,12,6,15,0.00
2013-3-13,74.0,66.1,57.0,65.0,55.3,45.0,92,70,42,30.11,29.97,12,5,14,0.00
2013-3-14,69.0,61.2,55.0,54.0,47.9,38.0,87,64,35,30.19,30.08,15,6,19,0.00
2013-3-15,71.0,62.6,53.0,55.0,50.5,45.0,80,65,47,30.23,30.14,12,5,13,0.00
2013-3-16,74.0,65.3,55.0,57.0,54.1,51.0,95,70,47,30.18,30.09,9,3,11,0.00
2013-3-17,75.0,69.9,59.0,61.0,58.5,55.0,89,68,56,30.14,30.01,9,3,12,0.01
2013-3-18,79.0,72.2,67.0,70.0,64.7,61.0,94,78,64,30.06,29.94,12,4,17,0.01
2013-3-19,79.0,72.8,68.0,70.0,67.0,63.0,94,83,62,29.99,29.80,13,3,15,0.16
2013-3-20,81.0,72.4,64.0,68.0,65.3,59.0,95,79,55,29.95,29.79,10,3,12,0.00
2013-3-21,75.0,66.7,59.0,62.0,54.5,47.0,92,68,38,29.93,29.81,9,4,14,0.00
2013-3-22,76.0,67.7,57.0,69.0,59.7,54.0,95,77,55,29.98,29.88,9,3,11,0.00
2013-3-23,85.0,77.5,72.0,73.0,70.7,67.0,93,80,57,29.97,29.80,12,4,17,0.02
2013-3-24,88.0,79.6,73.0,73.0,70.1,67.0,92,74,51,29.88,29.68,16,7,29,0.02
2013-3-25,78.0,73.6,66.0,73.0,59.6,44.0,91,65,35,29.97,29.73,11,5,12,0.01
2013-3-26,66.0,60.6,53.0,45.0,39.9,34.0,64,47,33,30.18,29.97,12,7,15,0.01
2013-3-27,68.0,56.8,46.0,48.0,43.0,37.0,76,61,38,30.21,30.14,9,5,13,0.00
2013-3-28,71.0,61.2,52.0,51.0,45.9,36.0,80,59,34,30.23,30.15,10,4,10,0.00
2013-3-29,72.0,64.7,56.0,54.0,50.0,44.0,74,60,46,30.26,30.17,12,4,13,0.00
2013-3-30,74.0,67.2,57.0,55.0,52.7,49.0,87,61,44,30.24,30.14,9,3,11,0.00
2013-3-31,79.0,72.6,67.0,66.0,60.2,-99.9,79,68,56,30.17,30.03,10,4,16,0.00
2013-4-1,85.0,76.4,72.0,70.0,65.8,61.0,87,71,45,30.04,29.93,13,5,14,0.00
2013-4-2,82.0,73.7,66.0,67.0,65.0,63.0,95,76,54,30.06,29.97,7,3,9,0.00
2013-4-3,80.0,76.2,71.0,70.0,67.2,65.0,85,74,63,30.05,29.98,11,5,13,0.00
2013-4-4,83.0,75.5,69.0,72.0,69.0,67.0,95,81,67,30.03,29.89,13,5,14,0.75
2013-4-5,73.0,69.2,66.0,71.0,66.1,64.0,95,90,80,29.97,29.83,10,3,10,0.75
2013-4-6,76.0,68.4,59.0,65.0,60.7,57.0,94,77,60,30.06,29.90,13,6,17,0.01
2013-4-7,77.0,73.6,71.0,63.0,62.1,60.0,74,68,59,30.11,30.00,8,5,12,0.02
2013-4-8,80.0,73.2,62.0,64.0,61.4,56.0,94,68,46,30.11,30.02,8,3,9,0.00
2013-4-9,80.0,76.0,73.0,67.0,65.5,63.0,77,70,62,30.13,30.03,10,5,13,0.00
2013-4-10,82.0,77.3,74.0,71.0,69.0,65.0,82,76,68,30.09,29.98,10,6,11,0.00
2013-4-11,82.0,77.8,75.0,73.0,70.5,69.0,86,79,68,30.01,29.89,12,6,15,0.00
2013-4-12,85.0,79.1,77.0,75.0,73.0,71.0,92,82,66,29.93,29.86,13,6,18,0.85
2013-4-13,83.0,77.1,73.0,74.0,71.8,67.0,91,84,71,29.96,29.86,9,2,10,0.85
2013-4-14,85.0,78.9,72.0,74.0,72.3,70.0,95,81,64,29.95,29.89,9,4,13,0.03
2013-4-15,86.0,77.5,70.0,75.0,72.2,68.0,94,84,66,30.05,29.91,11,3,13,1.09
2013-4-16,85.0,77.2,71.0,76.0,71.5,69.0,95,84,67,30.10,30.01,9,4,10,1.09
2013-4-17,82.0,77.9,74.0,71.0,68.0,66.0,83,72,59,30.10,30.01,10,5,11,0.14
2013-4-18,83.0,79.4,76.0,73.0,69.8,67.0,80,73,63,30.05,29.96,11,5,15,0.00
2013-4-19,85.0,80.9,78.0,74.0,71.0,69.0,81,72,58,30.04,29.95,12,6,12,0.00
2013-4-20,87.0,78.1,72.0,75.0,72.2,68.0,94,83,60,30.06,29.95,11,3,11,1.50
2013-4-21,83.0,76.9,72.0,73.0,71.0,69.0,94,83,67,30.08,29.98,9,4,14,1.50
2013-4-22,83.0,74.7,70.0,72.0,69.4,54.0,94,84,56,30.03,29.91,9,2,12,0.01
2013-4-23,81.0,74.3,67.0,68.0,65.4,61.0,95,75,57,30.07,29.93,14,6,16,2.17
2013-4-24,81.0,76.9,73.0,65.0,62.8,60.0,72,62,54,30.12,30.01,8,4,9,0.01
2013-4-25,80.0,76.0,72.0,64.0,61.7,60.0,72,62,52,30.18,30.06,8,4,15,0.00
2013-4-26,80.0,75.5,69.0,65.0,63.4,61.0,82,67,57,30.20,30.09,13,4,13,0.00
2013-4-27,80.0,76.6,73.0,67.0,63.2,60.0,73,64,53,30.19,30.07,9,5,14,0.00
2013-4-28,81.0,76.6,73.0,66.0,61.8,-99.9,73,63,54,30.10,29.98,11,6,12,0.00
2013-4-29,81.0,77.7,75.0,71.0,67.0,61.0,79,70,60,30.02,29.93,11,6,14,0.00
2013-4-30,82.0,77.0,72.0,72.0,69.7,66.0,90,79,60,29.98,29.91,10,3,10,0.14
2013-5-1,83.0,75.1,71.0,73.0,69.8,68.0,95,84,64,29.98,29.91,8,2,11,0.14
2013-5-2,79.0,71.9,67.0,73.0,69.3,66.0,96,91,79,29.93,29.78,14,3,19,0.24
2013-5-3,84.0,74.4,68.0,71.0,68.4,66.0,96,83,56,29.80,29.68,8,4,9,4.54
2013-5-4,87.0,76.6,68.0,70.0,66.9,64.0,95,74,48,29.79,29.67,9,4,13,0.08
2013-5-5,80.0,73.7,69.0,67.0,62.0,52.0,93,69,39,29.91,29.74,9,4,11,0.00
2013-5-6,83.0,71.4,61.0,67.0,60.8,55.0,95,71,44,29.99,29.90,8,2,9,0.20
2013-5-7,84.0,72.6,63.0,66.0,61.0,58.0,91,69,42,30.04,29.95,10,4,11,0.20
2013-5-8,84.0,74.1,63.0,66.0,60.9,52.0,93,66,34,30.11,30.02,6,3,7,0.00
2013-5-9,85.0,76.5,66.0,72.0,66.3,61.0,85,72,57,30.12,30.05,10,3,12,0.00
2013-5-10,87.0,80.3,76.0,74.0,67.5,-99.9,87,70,53,30.09,30.01,10,5,11,0.00
2013-5-11,86.0,79.4,74.0,74.0,72.0,67.0,93,79,65,30.05,29.97,10,4,13,0.00
2013-5-12,87.0,77.5,72.0,74.0,67.2,-99.9,94,79,57,30.05,29.94,10,3,11,0.44
2013-5-13,86.0,77.8,72.0,72.0,68.9,64.0,95,76,51,30.07,29.97,9,3,13,0.44
2013-5-14,80.0,76.2,73.0,67.0,60.4,56.0,76,59,46,30.16,30.05,12,6,14,0.00
2013-5-15,80.0,76.2,71.0,64.0,60.1,57.0,69,58,48,30.17,30.08,11,5,12,0.00
2013-5-16,82.0,70.7,70.0,64.0,39.8,-99.9,71,60,49,30.10,30.03,9,4,11,0.00
2013-5-17,86.0,76.7,70.0,72.0,64.0,-99.9,93,74,52,30.08,30.00,9,3,11,0.04
2013-5-18,84.0,78.2,73.0,75.0,71.6,69.0,95,81,67,30.09,30.02,11,4,11,0.32
2013-5-19,84.0,79.5,75.0,71.0,68.6,65.0,82,70,54,30.08,29.99,8,4,10,0.24
2013-5-20,81.0,76.4,70.0,74.0,71.6,67.0,95,85,75,30.06,29.95,13,4,13,1.94
2013-5-21,82.0,75.5,71.0,74.0,70.3,68.0,95,84,64,30.04,29.93,12,-53,12,2.19
2013-5-22,81.0,75.9,72.0,72.0,71.4,69.0,91,86,75,30.00,29.94,6,1,8,1.20
2013-5-23,87.0,80.9,75.0,72.0,71.0,69.0,90,74,58,30.03,29.95,5,0,6,0.30
2013-5-24,87.0,79.4,76.0,74.0,72.1,70.0,93,81,58,30.03,30.03,0,0,4,0.01
2013-5-25,79.0,76.3,76.0,74.0,71.6,65.0,91,86,65,30.18,30.03,245,19,249,0.23
2013-5-26,82.0,79.3,78.0,65.0,64.7,64.0,65,61,54,30.18,30.17,0,0,9,1.00
2013-5-27,82.0,81.5,80.0,71.0,67.0,64.0,72,62,54,30.17,30.16,8,0,14,0.08
2013-5-28,77.0,77.0,77.0,70.0,70.0,70.0,80,80,80,30.10,30.10,5,5,5,0.00
2013-5-29,80.0,74.0,71.0,72.0,69.9,69.0,94,88,75,30.09,30.01,9,2,9,0.15
2013-5-30,82.0,78.4,75.0,73.0,71.0,69.0,86,78,70,30.04,29.98,13,8,17,0.30
2013-5-31,82.0,78.7,75.0,75.0,72.7,70.0,92,82,74,30.03,29.98,11,6,13,0.30
2013-6-1,84.0,77.9,74.0,76.0,73.9,72.0,94,88,71,30.01,29.93,8,2,11,0.90
2013-6-2,88.0,79.0,73.0,77.0,71.2,-99.9,95,82,59,29.98,29.91,9,2,11,3.50
2013-6-3,86.0,78.7,74.0,76.0,73.2,70.0,94,84,63,30.01,29.90,9,2,11,6.90
2013-6-4,77.0,75.7,74.0,75.0,73.7,72.0,95,94,92,30.01,29.93,3,0,123,7.20
2013-6-5,84.0,80.6,76.0,76.0,75.1,74.0,94,84,76,30.01,29.88,9,4,123,1.20
2013-6-6,86.0,79.9,74.0,78.0,74.9,71.0,95,85,72,29.89,29.76,16,7,43,0.44
2013-6-7,90.0,77.8,74.0,76.0,73.1,72.0,95,86,57,29.97,29.82,12,4,12,0.60
2013-6-8,87.0,79.7,75.0,78.0,73.8,-99.9,95,85,69,30.08,29.94,6,2,10,0.20
2013-6-9,86.0,82.1,79.0,75.0,73.8,72.0,89,76,66,30.09,30.02,11,6,11,0.40
2013-6-10,86.0,82.8,80.0,76.0,74.8,73.0,83,77,68,30.08,29.99,8,5,11,0.00
2013-6-11,87.0,82.1,78.0,77.0,75.3,71.0,93,80,60,30.08,29.99,11,3,11,4.40
2013-6-12,87.0,81.0,77.0,77.0,75.3,73.0,93,84,64,30.06,30.00,7,1,7,4.40
2013-6-13,89.0,80.2,75.0,77.0,73.5,70.0,95,82,53,30.03,29.92,7,2,7,2.40
2013-6-14,93.0,81.1,75.0,75.0,72.1,69.0,93,75,48,29.95,29.87,10,3,11,2.40
2013-6-15,89.0,82.2,76.0,76.0,73.2,69.0,92,76,52,30.04,29.91,8,2,9,0.00
2013-6-16,89.0,82.8,76.0,77.0,74.2,71.0,92,76,57,30.07,30.00,8,3,10,0.20
2013-6-17,89.0,83.9,78.0,76.0,74.1,71.0,87,73,58,30.07,29.99,9,3,12,0.20
2013-6-18,89.0,84.2,79.0,76.0,73.9,71.0,88,72,56,30.05,29.97,10,3,11,0.00
2013-6-19,90.0,83.9,79.0,77.0,74.2,70.0,90,74,53,30.03,29.97,9,3,14,0.00
2013-6-20,90.0,81.8,72.0,75.0,72.8,68.0,93,75,56,30.06,30.00,10,3,12,1.10
2013-6-22,88.0,85.2,82.0,74.0,72.3,70.0,75,66,58,30.09,30.03,8,5,11,0.00
2013-6-23,87.0,83.4,80.0,78.0,72.8,70.0,82,71,59,30.11,30.03,12,5,12,0.30
2013-6-24,87.0,82.0,78.0,74.0,72.6,71.0,88,74,64,30.14,30.06,8,5,11,0.30
2013-6-25,87.0,82.8,80.0,76.0,73.9,72.0,81,75,66,30.11,30.02,10,4,11,3.40
2013-6-26,88.0,82.6,79.0,76.0,74.2,72.0,89,77,61,30.06,29.99,9,3,10,1.90
2013-6-27,86.0,82.2,76.0,76.0,74.0,72.0,89,77,67,30.04,29.94,7,2,9,1.90
2013-6-28,89.0,79.5,75.0,76.0,72.8,69.0,94,81,59,29.97,29.85,9,3,14,2.30
2013-6-29,89.0,80.2,75.0,77.0,74.2,69.0,94,83,58,29.91,29.81,11,2,11,2.50
2013-6-30,88.0,81.3,77.0,76.0,73.8,71.0,88,79,60,29.93,29.83,14,5,16,1.50
2013-7-1,87.0,81.4,79.0,76.0,74.6,72.0,87,80,67,29.99,29.90,11,4,11,0.40
2013-7-2,87.0,82.3,76.0,77.0,75.2,71.0,93,80,69,30.09,29.96,8,4,11,1.10
2013-7-3,87.0,82.0,78.0,77.0,74.6,72.0,89,79,67,30.10,30.02,11,4,11,0.10
2013-7-4,88.0,84.2,79.0,76.0,73.9,70.0,82,72,63,30.13,30.05,11,6,16,1.00
2013-7-5,86.0,80.6,76.0,77.0,74.3,72.0,93,82,70,30.13,30.03,12,4,12,3.90
2013-7-6,86.0,82.4,80.0,76.0,73.6,71.0,86,75,64,30.10,30.01,10,6,12,5.10
2013-7-7,88.0,83.4,80.0,76.0,73.7,70.0,81,73,60,30.08,30.01,9,5,13,1.00
2013-7-8,88.0,82.8,80.0,74.0,72.4,71.0,78,71,59,30.13,30.05,8,4,10,0.00
2013-7-9,86.0,81.3,76.0,74.0,72.0,68.0,88,74,58,30.11,30.03,10,2,11,0.10
2013-7-10,84.0,77.0,71.0,75.0,68.8,-99.9,95,80,70,30.06,29.98,11,3,11,0.10
2013-7-11,89.0,82.0,76.0,76.0,73.7,71.0,92,77,58,30.01,29.93,9,2,9,2.20
2013-7-12,88.0,80.2,77.0,77.0,73.3,69.0,93,81,57,29.95,29.89,9,2,9,0.20
2013-7-13,87.0,76.1,73.0,76.0,72.3,71.0,95,89,63,30.01,29.90,6,2,7,0.20
2013-7-14,87.0,78.7,72.0,75.0,72.5,70.0,95,83,59,30.06,29.96,10,3,13,0.50
2013-7-15,87.0,78.6,73.0,75.0,72.4,70.0,95,83,60,30.06,29.99,7,2,12,1.40
2013-7-16,83.0,78.6,73.0,74.0,71.1,69.0,94,78,65,30.12,30.02,10,4,11,3.70
2013-7-17,81.0,77.7,73.0,74.0,72.5,71.0,95,84,76,30.12,30.02,7,3,9,3.90
2013-7-18,83.0,75.1,72.0,76.0,72.4,69.0,95,92,75,30.09,30.03,11,1,11,9.70
2013-7-19,86.0,79.3,74.0,78.0,74.5,72.0,95,86,69,30.11,30.03,9,3,13,6.80
2013-7-20,85.0,81.2,77.0,78.0,74.1,-99.9,91,81,72,30.08,30.01,10,4,10,0.90
2013-7-21,89.0,81.3,76.0,78.0,75.4,73.0,93,83,68,30.13,30.03,8,2,10,0.90
2013-7-22,88.0,81.6,78.0,76.0,74.8,73.0,88,80,62,30.12,30.06,7,2,8,0.10
2013-7-23,90.0,83.2,78.0,76.0,74.2,71.0,90,75,55,30.09,29.96,7,3,8,0.00
2013-7-24,92.0,84.6,78.0,76.0,72.7,67.0,91,70,47,30.00,29.90,9,4,11,0.00
2013-7-25,93.0,83.4,77.0,75.0,73.0,71.0,89,72,49,30.00,29.90,8,3,11,0.00
2013-7-26,91.0,81.8,78.0,77.0,74.3,71.0,88,79,53,30.00,29.92,10,4,10,0.00
2013-7-27,90.0,79.8,76.0,77.0,74.9,73.0,94,86,60,29.98,29.92,11,2,11,3.50
2013-7-28,85.0,80.2,74.0,77.0,74.8,72.0,93,84,71,30.05,29.93,8,2,12,5.20
2013-7-29,88.0,80.7,76.0,77.0,75.2,72.0,94,84,68,30.12,30.00,9,2,14,4.20
2013-7-30,88.0,83.6,74.0,79.0,76.0,71.0,93,78,65,30.14,30.06,9,3,10,0.70
2013-7-31,88.0,84.2,80.0,76.0,74.5,71.0,85,73,63,30.09,29.99,10,4,10,4.10
2013-8-1,88.0,83.7,81.0,75.0,73.0,71.0,79,71,59,30.03,29.93,8,5,11,0.00
2013-8-2,90.0,81.6,76.0,76.0,73.0,70.0,91,76,53,30.03,29.90,7,2,9,0.80
2013-8-3,86.0,78.4,72.0,78.0,74.2,70.0,95,88,70,30.10,30.00,9,1,9,0.80
2013-8-4,91.0,82.3,76.0,77.0,74.8,72.0,95,80,55,30.09,29.96,10,2,10,6.50
2013-8-5,89.0,80.8,77.0,78.0,74.9,72.0,92,83,62,30.02,29.93,8,2,10,2.80
2013-8-6,90.0,82.0,76.0,77.0,74.6,71.0,94,80,63,29.96,29.88,8,2,10,2.50
2013-8-7,88.0,83.2,78.0,77.0,74.9,73.0,91,77,65,29.96,29.88,9,3,9,0.00
2013-8-8,89.0,84.6,82.0,76.0,74.5,71.0,80,72,58,30.00,29.91,10,5,12,0.10
2013-8-9,88.0,83.2,81.0,76.0,73.4,70.0,80,73,64,30.04,29.93,9,5,11,0.10
2013-8-10,89.0,84.9,82.0,77.0,74.9,74.0,81,72,62,30.10,30.01,9,6,9,0.00
2013-8-11,89.0,85.1,82.0,77.0,75.2,73.0,79,73,65,30.11,30.04,9,5,9,0.00
2013-8-12,88.0,82.9,78.0,76.0,73.6,72.0,85,74,63,30.09,29.99,8,3,12,0.00
2013-8-13,90.0,83.3,81.0,76.0,70.9,-99.9,83,70,51,30.03,29.94,8,4,11,0.00
2013-8-14,86.0,81.0,77.0,75.0,74.5,73.0,91,81,65,30.00,29.93,4,1,4,0.00
2013-9-1,86.0,82.7,79.0,77.0,76.0,74.0,92,81,68,29.97,29.91,6,2,7,0.00
2013-9-2,90.0,79.1,75.0,77.0,74.6,73.0,95,87,58,30.01,29.92,7,1,10,1.10
2013-9-3,89.0,81.1,73.0,77.0,74.6,71.0,95,82,62,30.00,29.91,6,2,6,1.10
2013-9-4,86.0,83.0,79.0,78.0,76.1,73.0,88,80,74,30.04,29.93,5,2,5,0.60
2013-9-5,89.0,84.7,82.0,77.0,76.0,74.0,85,76,66,30.05,29.97,6,3,9,0.10
2013-9-6,90.0,84.8,80.0,78.0,73.2,-99.9,88,74,54,30.02,29.92,10,3,11,0.20
2013-9-7,85.0,78.7,75.0,77.0,74.6,70.0,94,87,69,29.96,29.88,9,2,9,0.20
2013-9-8,87.0,78.7,74.0,77.0,71.3,-99.9,95,82,60,29.93,29.84,7,2,7,2.20
2013-9-9,88.0,82.1,75.0,76.0,73.6,72.0,93,76,59,29.98,29.87,8,3,8,0.50
2013-9-10,89.0,83.4,80.0,75.0,74.1,72.0,83,74,62,30.02,29.94,9,4,10,0.00
2013-9-11,83.0,80.3,75.0,76.0,74.2,72.0,95,82,76,30.03,29.94,9,3,9,0.20
2013-9-12,85.0,80.8,77.0,77.0,75.1,73.0,93,83,73,29.99,29.87,5,2,7,6.40
2013-9-13,89.0,82.1,75.0,78.0,74.1,70.0,95,78,62,29.88,29.79,6,2,7,2.50
2013-9-14,90.0,83.5,77.0,76.0,74.0,70.0,93,74,54,29.96,29.80,7,3,12,2.50
2013-9-15,85.0,80.7,78.0,79.0,72.3,-99.9,88,79,71,30.02,29.91,6,2,8,0.20
2013-9-16,85.0,81.5,78.0,77.0,75.5,72.0,94,82,72,30.01,29.94,8,4,10,0.80
2013-9-17,82.0,79.9,77.0,76.0,74.9,73.0,94,85,77,30.00,29.89,9,4,10,9.00
2013-9-18,82.0,79.0,77.0,76.0,74.9,74.0,93,88,80,29.95,29.89,6,1,7,0.00
2013-9-19,87.0,80.5,75.0,77.0,74.0,70.0,95,81,66,29.98,29.90,9,3,9,1.50
2013-9-20,85.0,81.4,75.0,73.0,70.2,67.0,86,69,55,29.97,29.88,11,5,17,1.50
2013-9-21,87.0,81.3,73.0,73.0,71.7,70.0,91,73,59,29.89,29.76,6,3,9,0.00
2013-9-22,89.0,82.0,78.0,77.0,71.9,-99.9,91,75,52,29.84,29.74,8,3,8,0.00
2013-9-23,88.0,81.1,77.0,77.0,76.0,74.0,93,85,66,29.95,29.84,7,1,7,1.90
2013-9-24,90.0,81.6,75.0,79.0,75.3,72.0,95,82,57,29.94,29.85,9,3,9,1.90
2013-9-25,90.0,81.3,75.0,78.0,73.5,71.0,89,78,57,29.88,29.79,9,3,15,2.01
2013-9-26,87.0,81.1,77.0,78.0,75.9,74.0,93,85,70,29.84,29.77,11,4,14,0.01
2013-9-27,86.0,81.8,77.0,76.0,72.8,69.0,94,75,57,29.89,29.80,11,4,11,0.25
2013-9-28,87.0,79.6,74.0,74.0,71.9,70.0,94,78,61,29.93,29.85,9,4,11,0.09
2013-9-29,86.0,79.7,73.0,73.0,67.0,-99.9,92,68,53,29.94,29.86,8,2,11,0.09
2013-9-30,87.0,81.0,73.0,73.0,70.4,69.0,92,71,57,29.98,29.88,7,2,8,0.00
2013-10-1,82.0,81.5,81.0,72.0,71.5,70.0,73,72,70,30.01,29.97,5,4,6,0.00
2013-10-2,87.0,82.7,80.0,73.0,71.9,70.0,76,70,61,30.02,29.94,9,5,12,0.00
2013-10-3,86.0,82.2,80.0,74.0,72.4,70.0,81,73,60,30.03,29.93,9,4,9,0.00
2013-10-4,86.0,81.9,76.0,73.0,70.9,69.0,85,70,59,30.03,29.96,7,3,9,0.00
2013-10-5,87.0,80.4,72.0,74.0,70.8,69.0,94,73,59,30.01,29.92,7,2,7,0.00
2013-10-6,88.0,81.8,75.0,75.0,71.6,69.0,89,72,55,29.95,29.85,7,2,9,0.00
2013-10-7,90.0,79.8,75.0,75.0,72.3,70.0,93,79,52,29.88,29.80,18,3,18,0.06
2013-10-8,90.0,81.8,77.0,78.0,73.7,70.0,95,78,54,29.91,29.82,7,3,9,0.05
2013-10-9,83.0,78.0,73.0,75.0,72.5,70.0,92,83,70,29.96,29.88,13,5,13,0.00
2013-10-10,85.0,79.1,72.0,73.0,70.9,68.0,95,77,60,29.98,29.92,12,6,17,0.00
2013-10-11,85.0,78.1,70.0,71.0,67.9,66.0,95,73,55,29.99,29.91,10,3,13,0.00
2013-10-12,85.0,77.7,69.0,72.0,67.9,66.0,95,73,54,30.00,29.92,7,2,8,0.00
2013-10-13,85.0,76.3,72.0,72.0,63.9,-99.9,93,70,46,30.02,29.94,10,3,12,0.00
2013-10-14,85.0,77.6,70.0,70.0,68.3,66.0,93,74,54,29.99,29.88,7,3,9,0.00
2013-10-15,84.0,78.1,71.0,72.0,69.7,67.0,94,77,57,29.93,29.85,10,3,10,0.00
2013-10-16,84.0,78.4,72.0,72.0,69.4,67.0,92,75,57,29.92,29.86,8,2,8,0.00
2013-10-17,86.0,78.6,71.0,74.0,70.3,68.0,95,77,57,29.94,29.87,6,2,10,0.00
2013-10-18,86.0,79.7,72.0,74.0,71.5,70.0,94,77,59,29.96,29.88,7,2,8,0.01
2013-10-19,88.0,82.0,75.0,74.0,72.2,70.0,90,73,55,29.94,29.86,7,3,7,0.01
2013-10-20,87.0,80.4,77.0,76.0,71.8,-99.9,91,78,67,29.94,29.85,8,2,10,6.02
2013-10-21,88.0,82.5,77.0,76.0,74.6,73.0,94,78,62,29.98,29.89,7,2,8,0.00
2013-10-22,89.0,82.1,76.0,77.0,72.5,-99.9,92,79,57,29.94,29.81,8,3,9,0.00
2013-10-23,88.0,80.6,77.0,76.0,72.7,69.0,92,78,57,29.93,29.80,10,4,10,0.00
2013-10-24,80.0,76.6,73.0,69.0,65.0,61.0,80,68,57,30.06,29.91,12,6,16,0.00
2013-10-25,81.0,77.9,71.0,67.0,63.4,62.0,81,62,52,30.11,30.05,13,8,19,0.00
2013-10-26,81.0,75.8,69.0,66.0,63.5,62.0,85,67,52,30.11,30.03,9,3,13,0.00
2013-10-27,82.0,74.3,67.0,65.0,61.0,-99.9,83,66,52,30.06,29.94,8,4,11,0.00
2013-10-28,83.0,76.4,68.0,68.0,62.6,-99.9,90,66,50,30.11,30.02,9,3,11,0.00
2013-10-29,84.0,77.9,68.0,69.0,66.6,65.0,92,69,57,30.14,30.06,10,4,12,0.00
2013-10-30,83.0,79.5,77.0,69.0,66.7,65.0,72,65,58,30.15,30.06,9,6,15,0.00
2013-10-31,84.0,73.8,76.0,73.0,57.6,-99.9,87,68,64,30.09,29.98,10,5,10,0.00
2013-11-1,86.0,81.4,78.0,74.0,72.4,71.0,81,74,66,29.99,29.87,8,5,9,0.03
2013-11-3,80.0,73.9,69.0,65.0,61.5,-99.9,85,68,54,29.99,29.86,14,7,19,0.00
2013-11-4,80.0,76.8,74.0,68.0,63.5,57.0,74,64,48,30.04,29.98,14,8,16,0.00
2013-11-5,82.0,78.7,77.0,72.0,68.3,65.0,85,71,61,30.06,29.99,10,7,15,0.01
2013-11-6,83.0,78.8,73.0,70.0,68.4,66.0,86,71,57,30.03,29.97,9,5,13,0.01
2013-11-7,84.0,76.1,70.0,72.0,69.7,68.0,95,82,61,29.98,29.90,7,3,12,0.00
2013-11-8,82.0,76.5,71.0,74.0,70.0,67.0,95,81,62,30.01,29.91,11,6,17,0.28
2013-11-9,78.0,75.3,73.0,73.0,68.9,-99.9,95,83,77,30.08,29.98,12,7,15,0.28
2013-11-10,82.0,78.8,76.0,72.0,70.3,68.0,86,75,70,30.09,30.02,9,6,11,0.17
2013-11-11,82.0,78.0,71.0,71.0,68.4,66.0,91,73,65,30.08,30.02,7,4,9,0.00
2013-11-12,82.0,76.1,70.0,71.0,67.9,63.0,94,77,57,30.03,29.94,7,3,9,0.00
2013-11-13,75.0,72.1,69.0,68.0,64.4,57.0,88,77,64,30.17,29.96,14,9,21,0.02
2013-11-14,76.0,72.8,70.0,62.0,58.2,55.0,68,60,54,30.20,30.11,11,6,11,0.01
2013-11-15,81.0,77.0,73.0,69.0,67.0,62.0,75,71,63,30.11,30.00,10,6,11,0.00
2013-11-16,79.0,78.0,73.0,71.0,69.5,67.0,91,75,68,30.06,29.99,9,5,9,0.05
2013-11-17,82.0,79.4,75.0,72.0,70.8,69.0,86,75,67,30.04,29.98,9,5,10,0.05
2013-11-18,82.0,76.3,73.0,74.0,71.4,70.0,95,86,68,30.00,29.90,5,0,5,0.01
2013-11-19,83.0,74.9,73.0,74.0,71.4,70.0,95,89,68,29.91,29.83,10,2,11,0.52
2013-11-20,81.0,77.5,72.0,74.0,63.0,-99.9,95,80,75,30.03,29.89,5,-54,6,0.04
2013-11-21,80.0,76.5,72.0,74.0,72.2,70.0,95,87,79,30.11,30.01,6,4,10,1.95
2013-11-22,81.0,77.9,76.0,72.0,70.3,69.0,81,77,71,30.12,30.04,11,6,14,1.95
2013-11-23,80.0,74.6,73.0,71.0,64.0,-99.9,88,76,72,30.04,29.96,6,2,6,0.00
2013-11-24,79.0,72.3,68.0,71.0,67.5,65.0,95,85,64,30.10,29.95,15,6,16,0.40
2013-11-25,75.0,73.2,72.0,69.0,65.2,60.0,85,76,67,30.15,30.03,13,8,14,0.40
2013-11-26,78.0,75.8,72.0,74.0,71.6,69.0,94,86,82,30.02,29.83,9,7,15,0.17
2013-11-27,78.0,72.9,72.0,75.0,71.2,70.0,96,95,92,29.86,29.76,6,4,6,0.19
2013-11-28,72.0,70.8,65.0,60.0,56.9,55.0,73,62,56,30.20,30.12,11,6,14,0.00
2013-11-29,76.0,70.9,61.0,62.0,59.8,56.0,92,69,58,30.22,30.15,10,6,12,0.00
2013-11-30,75.0,68.4,62.0,69.0,63.1,60.0,95,84,65,30.17,30.08,11,5,11,0.60
2013-12-1,77.0,70.1,68.0,70.0,68.1,67.0,96,93,74,29.97,29.92,6,3,7,1.66
2013-12-2,73.0,68.4,65.0,68.0,65.8,63.0,97,92,71,29.91,29.80,5,2,5,1.66
2013-12-3,70.0,70.0,70.0,66.0,66.0,66.0,88,88,88,29.96,29.96,0,0,0,0.00
2013-12-4,80.0,69.6,65.0,66.0,65.4,64.0,96,87,62,30.06,29.95,6,1,6,0.00
2013-12-5,81.0,75.0,66.0,71.0,68.6,65.0,96,81,68,30.13,30.04,9,4,9,0.00
2013-12-6,80.0,76.7,73.0,71.0,69.4,67.0,82,79,72,30.14,30.06,7,4,11,0.00
2013-12-7,82.0,74.9,68.0,72.0,66.9,-99.9,95,79,64,30.18,30.11,7,3,8,0.00
2013-12-8,82.0,77.8,72.0,71.0,69.0,67.0,92,75,64,30.17,30.10,12,6,12,0.00
2013-12-9,81.0,78.3,76.0,71.0,68.3,65.0,80,72,59,30.16,30.08,9,5,11,6.97
2013-12-10,77.0,76.0,74.0,71.0,70.4,70.0,91,83,79,30.12,30.07,5,3,7,0.00
2013-12-11,72.0,70.6,70.0,70.0,69.0,68.0,96,95,92,30.14,30.09,5,2,5,0.00
2013-12-12,72.0,70.9,70.0,70.0,69.1,68.0,96,95,92,30.16,30.10,5,1,5,0.00
2013-12-13,74.0,74.0,74.0,66.0,66.0,66.0,75,75,75,30.08,30.08,6,6,6,0.00
2013-12-14,81.0,73.3,75.0,72.0,62.6,-99.9,84,77,72,30.06,29.97,8,5,9,0.01
2013-12-15,77.0,74.9,73.0,73.0,71.8,69.0,94,90,86,30.02,29.91,5,4,5,0.00
2013-12-16,71.0,67.6,63.0,67.0,62.1,60.0,92,83,79,30.11,30.01,6,5,7,0.00
2013-12-17,74.0,63.8,59.0,61.0,59.4,58.0,96,86,63,30.11,30.07,6,3,10,0.00
2013-12-18,62.0,61.5,61.0,60.0,59.2,57.0,94,93,85,30.18,30.09,7,2,7,0.00
2013-12-19,74.0,61.7,58.0,61.0,58.2,57.0,96,89,65,30.18,30.12,6,1,6,0.00
2013-12-22,81.0,79.2,77.0,74.0,72.3,71.0,88,80,72,30.13,30.07,9,5,12,0.03
2013-12-23,82.0,78.0,72.0,73.0,71.6,69.0,91,81,72,30.14,30.08,9,5,15,0.03
2013-12-24,82.0,71.7,68.0,73.0,67.4,62.0,96,87,66,30.14,30.05,12,4,12,0.01
2013-12-25,77.0,72.7,71.0,68.0,65.6,64.0,91,78,70,30.14,30.07,11,7,19,0.07
2013-12-26,78.0,75.1,72.0,70.0,69.0,67.0,88,82,75,30.13,30.03,9,4,11,0.02
2013-12-27,81.0,76.6,74.0,71.0,69.4,68.0,85,78,71,30.16,30.06,9,5,12,0.02
2013-12-28,79.0,75.4,75.0,73.0,68.2,-99.9,89,81,76,30.14,30.00,9,6,11,0.05
2013-12-29,81.0,77.9,75.0,74.0,72.8,72.0,95,85,78,30.00,29.90,12,6,12,0.05
2013-12-30,79.0,73.5,69.0,73.0,69.8,65.0,96,88,77,30.11,29.95,7,3,10,0.00
2013-12-31,78.0,72.1,68.0,67.0,64.6,63.0,89,78,63,30.19,30.07,16,6,16,0.00
2014-1-1,80.0,76.3,73.0,73.0,70.2,65.0,89,81,72,30.16,30.01,9,5,10,0.00